[[{"header":{"parameterUnit":"m.s-1","parameterCategory":1,"la1":30.2991,"la2":30.254,"lo1":-89.0895,"lo2":-89.0444,"dy":0.0017,"dx":0.0017,"nx":28,"ny":28,"refTime":"2025-09-14T09:00:00:Z","depth":0,"parameterNumber":2,"parameterNumberName":"U-component_of_WINDS"},"data":[0,0,0,0,0,0,0,0,0,0,0,0,0,0,0,0,0,0,0,0,0,0,0,0,0,0,0,0,0,0,0,0,0,0,0,0,0,0,0,0,0,0,0,0,0,0,0,0,0,0,0,0,0,0,0,0,0,0,-2.8056,-2.8057,0,-2.8134,-2.8134,-2.8135,-2.8113,-2.8111,-2.811,-2.8108,-2.8188,-2.8191,-2.8195,0,0,0,0,0,0,0,0,0,0,0,0,0,-2.789,-2.7893,-2.8056,-2.8057,-2.8058,-2.8133,-2.8135,-2.8136,-2.8113,-2.8111,-2.8109,-2.8108,-2.8186,-2.8191,-2.8195,0,0,0,0,0,0,0,0,0,0,0,0,0,-2.7964,-2.7894,-2.8056,-2.8056,-2.8057,-2.8133,-2.8135,-2.8136,-2.8114,-2.8111,-2.8109,-2.8107,-2.8185,-2.819,-2.8196,-2.8277,0,0,-2.8212,-2.8214,0,0,0,0,0,0,0,0,-2.796,-2.797,-2.8055,-2.8056,-2.8057,-2.8111,-2.8105,-2.8183,-2.8114,-2.8092,-2.8108,-2.8106,-2.8164,-2.8171,-2.8191,-2.828,-2.8284,-2.8213,-2.8216,-2.8218,-2.822,0,0,0,0,0,0,0,-2.7955,-2.7967,-2.8087,-2.8056,-2.8058,-2.8053,-2.806,-2.812,-2.8141,-2.8094,-2.8092,-2.8102,-2.8164,-2.8186,-2.8193,-2.8285,-2.8212,-2.8217,-2.8221,-2.8223,-2.8446,-2.8449,0,0,0,0,0,0,-2.7949,-2.7963,-2.8084,-2.8089,-2.8002,-2.8058,-2.8066,-2.8096,-2.814,-2.8144,-2.8104,-2.8101,-2.8178,-2.8186,-2.8195,-2.8293,-2.8218,-2.8223,-2.8226,-2.8443,-2.8447,-2.8449,0,0,0,0,0,0,-2.7946,-2.796,-2.8081,-2.8026,-2.8041,-2.8063,-2.8097,-2.8099,-2.812,-2.8147,-2.8151,-2.8122,-2.8176,-2.8188,-2.8257,-2.8296,-2.8226,-2.8231,-2.844,-2.8444,-2.8448,-2.8489,0,0,0,0,0,0,-2.7941,-2.7959,-2.799,-2.8027,-2.8044,-2.8141,-2.8099,-2.8102,-2.813,-2.8126,-2.8165,-2.8169,-2.8175,-2.8249,-2.8262,-2.8302,-2.8235,-2.8437,-2.8442,-2.8447,-2.8485,-2.8494,-2.8503,0,0,0,0,0,-2.7935,-2.7998,-2.7991,-2.8006,-2.8082,-2.8143,-2.8153,-2.8158,-2.8133,-2.8164,-2.8182,-2.8168,-2.829,-2.8256,-2.8271,-2.8313,-2.8434,-2.844,-2.8446,-2.8481,-2.8493,-2.8503,0,0,0,0,0,0,-2.7965,-2.8003,-2.7996,-2.8072,-2.8105,-2.8139,-2.8179,-2.8171,-2.8211,-2.8206,-2.8211,-2.822,-2.8291,-2.8309,-2.8271,-2.8394,-2.8358,-2.8368,-2.8379,-2.8391,-2.84,-2.8393,-2.8239,0,0,0,0,0,-2.798,-2.8026,-2.8057,-2.8122,-2.8139,-2.8156,-2.8183,-2.8184,-2.8218,-2.8232,-2.8254,-2.8288,-2.8333,-2.8363,-2.8407,-2.8488,-2.8496,-2.8524,-2.8533,-2.854,-2.8548,-2.8593,-2.8606,-2.8469,-2.8469,-2.8469,0,0,-2.8012,-2.8039,-2.8068,-2.8129,-2.8154,-2.8202,-2.8168,-2.822,-2.8255,-2.824,-2.8306,-2.8324,-2.8362,-2.8438,-2.8472,-2.8455,-2.8588,-2.8548,-2.8554,-2.8557,-2.86,-2.8613,-2.8625,-2.8474,-2.8473,-2.8472,0,0,-2.8096,-2.8121,-2.8177,-2.8204,-2.8243,-2.8254,-2.8268,-2.8304,-2.8316,-2.8383,-2.8372,-2.8415,-2.8494,-2.8521,-2.8546,-2.8642,-2.8631,-2.8656,-2.8702,-2.8746,-2.8757,-2.8766,-2.88,-2.8812,-2.8664,-2.8664,-2.8664,0,-2.8131,-2.8202,-2.8207,-2.8261,-2.8288,-2.8277,-2.8335,-2.836,-2.8411,-2.8431,-2.8411,-2.851,-2.8535,-2.8617,-2.864,-2.8661,-2.8677,-2.865,-2.8755,-2.8764,-2.8773,-2.8806,-2.8818,-2.8666,-2.8666,-2.8666,-2.8666,0,-2.8243,-2.8293,-2.8335,-2.8385,-2.8417,-2.8472,-2.8486,-2.8518,-2.8518,-2.8532,-2.8601,-2.863,-2.868,-2.87,-2.87,-2.8783,-2.8771,-2.8753,-2.8717,-2.8789,-2.8819,-2.8832,-2.867,-2.8669,-2.8668,-2.8668,0,0,-2.8345,-2.8399,-2.8414,-2.8437,-2.848,-2.8519,-2.8574,-2.8623,-2.865,-2.8687,-2.8733,-2.8801,-2.8785,-2.8813,-2.8816,-2.8855,-2.8929,-2.8832,-2.8833,-2.8849,-2.9022,-2.9034,-2.9049,-2.8923,-2.8925,-2.8927,-2.9019,0,-2.8432,-2.8528,-2.8536,-2.8623,-2.867,-2.8661,-2.8709,-2.8741,-2.8756,-2.8798,-2.8815,-2.8863,-2.8838,-2.8855,-2.8893,-2.8912,-2.8964,-2.8905,-2.8966,-2.8968,-2.8955,-2.9065,-2.9078,-2.9163,-2.9031,-2.9033,-2.9034,0,-2.8545,-2.8585,-2.8677,-2.8714,-2.8734,-2.8777,-2.8823,-2.8864,-2.89,-2.8908,-2.894,-2.8939,-2.8996,-2.8959,-2.9039,-2.8999,-2.9025,-2.9038,-2.9042,-2.9047,-2.9005,-2.9072,-2.919,-2.9203,-2.9053,-2.9052,-2.905,0,-2.861,-2.8687,-2.8752,-2.8772,-2.8817,-2.8848,-2.8868,-2.8903,-2.8932,-2.8972,-2.8991,-2.9038,-2.9064,-2.91,-2.9112,-2.9084,-2.9191,-2.9155,-2.92,-2.9199,-2.9221,-2.922,-2.9345,-2.924,-2.9239,-2.9239,-2.9239,0,-2.8705,-2.8761,-2.8782,-2.8821,-2.8885,-2.8894,-2.8956,-2.8975,-2.9006,-2.905,-2.9046,-2.9087,-2.91,-2.9144,-2.9154,-2.9218,-2.923,-2.9238,-2.924,-2.9238,-2.9237,-2.9254,-2.9248,-2.9243,-2.9242,-2.9241,-2.9241,0,-2.8787,-2.8803,-2.8873,-2.8911,-2.8922,-2.8967,-2.8999,-2.9038,-2.9053,-2.9109,-2.9123,-2.9146,-2.9198,-2.9213,-2.9275,-2.9282,-2.9358,-2.9354,-2.9345,-2.9345,-2.9388,-2.9384,-2.9528,-2.9547,-2.943,-2.9431,-2.9432,0,-2.8846,-2.8889,-2.8932,-2.8961,-2.8983,-2.903,-2.906,-2.907,-2.9102,-2.9148,-2.9181,-2.9232,-2.9274,-2.9357,-2.938,-2.9428,-2.9425,-2.9473,-2.9432,-2.9429,-2.9425,-2.9422,-2.9427,-2.948,-2.9481,-2.9482,-2.9483,0,-2.8949,-2.8955,-2.8998,-2.9045,-2.9081,-2.9118,-2.9154,-2.9178,-2.9194,-2.923,-2.9283,-2.9315,-2.9379,-2.943,-2.9479,-2.95,-2.9495,-2.9495,-2.9508,-2.9506,-2.9499,-2.9503,-2.9365,-2.9492,-2.9491,-2.949,-2.949,-2.9489,-2.9022,-2.906,-2.9096,-2.9144,-2.9173,-2.9206,-2.9245,-2.9265,-2.9309,-2.9362,-2.9366,-2.9423,-2.946,-2.9525,-2.955,-2.9595,-2.9581,-2.96,-2.9604,-2.9609,-2.9612,-2.9493,-2.9604,-2.9604,-2.9604,-2.9603,-2.9603,0,-2.9124,-2.9147,-2.9192,-2.9242,-2.9281,-2.9272,-2.9312,-2.9345,-2.9395,-2.943,-2.9471,-2.9532,-2.9582,-2.9609,-2.9659,-2.9691,-2.9689,-2.9703,-2.9701,-2.9706,-2.9622,-2.9605,-2.9704,-2.9703,-2.9703,-2.9703,-2.9703,-2.9703,-2.9182,-2.9247,-2.9257,-2.9336,-2.9359,-2.9415,-2.9438,-2.9469,-2.9497,-2.9566,-2.9607,-2.9625,-2.9657,-2.971,-2.9755,-2.9762,-2.9781,-2.9796,-2.9801,-2.9722,-2.9712,-2.9702,-2.9686,-2.98,-2.98,-2.9882,-2.9883,-2.9883]},{"header":{"parameterUnit":"m.s-1","parameterCategory":1,"la1":30.2991,"la2":30.254,"lo1":-89.0895,"lo2":-89.0444,"dy":0.0017,"dx":0.0017,"nx":28,"ny":28,"refTime":"2025-09-14T09:00:00:Z","depth":0,"parameterNumber":3,"parameterNumberName":"V-component_of_WINDS"},"data":[0,0,0,0,0,0,0,0,0,0,0,0,0,0,0,0,0,0,0,0,0,0,0,0,0,0,0,0,0,0,0,0,0,0,0,0,0,0,0,0,0,0,0,0,0,0,0,0,0,0,0,0,0,0,0,0,0,0,3.3038,3.3038,0,3.3055,3.3055,3.3056,3.3062,3.3062,3.3061,3.3061,3.3077,3.3078,3.3078,0,0,0,0,0,0,0,0,0,0,0,0,0,3.3007,3.3008,3.3038,3.3038,3.3038,3.3055,3.3055,3.3056,3.3062,3.3062,3.3061,3.3061,3.3077,3.3078,3.3078,0,0,0,0,0,0,0,0,0,0,0,0,0,3.3022,3.3008,3.3038,3.3043,3.3044,3.3055,3.3055,3.3056,3.3062,3.3062,3.3061,3.3061,3.3077,3.3078,3.3078,3.3085,0,0,3.3081,3.3081,0,0,0,0,0,0,0,0,3.3021,3.3023,3.3042,3.3043,3.3044,3.3056,3.305,3.3065,3.3062,3.3055,3.3061,3.3061,3.307,3.3072,3.3075,3.3086,3.3086,3.3081,3.3081,3.3081,3.3082,0,0,0,0,0,0,0,3.302,3.3022,3.3045,3.3042,3.3043,3.3044,3.3046,3.3053,3.3063,3.3055,3.3056,3.3058,3.3071,3.3074,3.3075,3.3087,3.3081,3.3081,3.3082,3.3082,3.3103,3.3103,0,0,0,0,0,0,3.3018,3.3021,3.3044,3.3045,3.3032,3.3045,3.3047,3.3052,3.3063,3.3064,3.3058,3.3058,3.3073,3.3075,3.3076,3.3084,3.3081,3.3082,3.3083,3.3103,3.3103,3.3103,0,0,0,0,0,0,3.3018,3.302,3.3043,3.3033,3.3036,3.3045,3.3051,3.3053,3.3056,3.3065,3.3066,3.306,3.3073,3.3075,3.3083,3.3085,3.3082,3.3083,3.3103,3.3103,3.3103,3.31,0,0,0,0,0,0,3.3017,3.302,3.3023,3.3033,3.3037,3.305,3.3051,3.3053,3.3058,3.3058,3.3067,3.3069,3.3073,3.3082,3.3083,3.3086,3.3084,3.3102,3.3103,3.3103,3.31,3.31,3.3101,0,0,0,0,0,3.3016,3.3021,3.3023,3.3026,3.3041,3.305,3.3052,3.3058,3.3058,3.3061,3.3066,3.3068,3.3084,3.3082,3.3084,3.3087,3.3102,3.3103,3.3103,3.31,3.31,3.3101,0,0,0,0,0,0,3.301,3.3023,3.3025,3.3034,3.3041,3.3051,3.3055,3.3058,3.3065,3.3065,3.3071,3.3073,3.308,3.3084,3.3082,3.3093,3.3093,3.3094,3.3091,3.3091,3.3091,3.309,3.3084,0,0,0,0,0,3.301,3.3018,3.3028,3.3035,3.3038,3.3046,3.305,3.3054,3.3062,3.3064,3.307,3.3077,3.3083,3.3087,3.3094,3.3101,3.3103,3.3104,3.3104,3.3104,3.3104,3.3108,3.3109,3.3104,3.3104,3.3104,0,0,3.301,3.3018,3.3022,3.3034,3.304,3.3047,3.3049,3.3056,3.3061,3.3065,3.3073,3.3078,3.3085,3.3093,3.3096,3.3096,3.3106,3.3104,3.3104,3.3105,3.3108,3.3109,3.3109,3.3104,3.3104,3.3104,0,0,3.3013,3.302,3.3027,3.3033,3.3042,3.3047,3.3049,3.3058,3.3062,3.307,3.3073,3.3079,3.309,3.3095,3.3099,3.3104,3.3106,3.3106,3.3106,3.311,3.311,3.3111,3.3112,3.3113,3.3106,3.3106,3.3106,0,3.3012,3.3023,3.303,3.3037,3.3042,3.3047,3.3053,3.3058,3.3069,3.3072,3.3072,3.3086,3.3091,3.31,3.3101,3.3104,3.3106,3.3105,3.311,3.311,3.3111,3.3112,3.3113,3.3106,3.3106,3.3106,3.3106,0,3.302,3.3028,3.3032,3.3043,3.3048,3.3055,3.3062,3.3066,3.307,3.3074,3.3082,3.3089,3.3097,3.3099,3.3102,3.3108,3.3108,3.3109,3.3109,3.3111,3.3113,3.3113,3.3106,3.3106,3.3106,3.3106,0,0,3.3021,3.3035,3.3037,3.3041,3.3052,3.3057,3.3064,3.3072,3.3076,3.3083,3.3088,3.3097,3.3098,3.3103,3.3106,3.311,3.3113,3.311,3.311,3.311,3.3119,3.3119,3.3119,3.3114,3.3114,3.3115,3.3119,0,3.3025,3.3038,3.3044,3.3054,3.3061,3.3066,3.3071,3.3078,3.3082,3.3088,3.3093,3.3099,3.31,3.3103,3.3107,3.3112,3.3115,3.3111,3.3119,3.3119,3.3117,3.312,3.3119,3.3123,3.3119,3.312,3.312,0,3.3032,3.304,3.305,3.306,3.3063,3.3068,3.3076,3.3082,3.3089,3.3092,3.3097,3.3101,3.3107,3.3107,3.3115,3.3113,3.3116,3.3119,3.3119,3.312,3.3119,3.3121,3.3124,3.3125,3.3121,3.3121,3.312,0,3.3031,3.3044,3.3052,3.3056,3.3067,3.3071,3.3075,3.3083,3.3087,3.3094,3.3097,3.3104,3.3107,3.3112,3.3118,3.3117,3.3125,3.3125,3.3128,3.3128,3.3129,3.3129,3.3133,3.3132,3.3131,3.3131,3.3131,0,3.3035,3.3042,3.3052,3.3057,3.3064,3.307,3.3077,3.3082,3.3088,3.3093,3.3098,3.3103,3.3109,3.3115,3.3118,3.3125,3.3126,3.3129,3.313,3.3128,3.3128,3.313,3.313,3.3132,3.3132,3.3132,3.3132,0,3.3035,3.3042,3.3052,3.3062,3.3064,3.3069,3.3077,3.3082,3.3087,3.3094,3.3095,3.3103,3.3109,3.3115,3.3124,3.3126,3.3133,3.3134,3.313,3.3131,3.3133,3.3132,3.3139,3.314,3.3137,3.3137,3.3137,0,3.3038,3.3043,3.3054,3.3058,3.3063,3.307,3.3074,3.3081,3.3085,3.3094,3.3097,3.3105,3.3111,3.3121,3.3127,3.3133,3.3134,3.3136,3.3135,3.3134,3.3134,3.3134,3.3134,3.3136,3.3136,3.3136,3.3136,0,3.3041,3.3044,3.3051,3.306,3.3065,3.3072,3.3079,3.3082,3.3089,3.3094,3.3101,3.3106,3.3115,3.3122,3.3129,3.3133,3.3135,3.3136,3.3137,3.3136,3.3133,3.3134,3.313,3.3136,3.3136,3.3136,3.3136,3.3136,3.3042,3.3047,3.3055,3.3063,3.3069,3.3075,3.308,3.3085,3.3092,3.31,3.3103,3.311,3.3117,3.3127,3.3131,3.3136,3.3137,3.3138,3.3138,3.3138,3.3138,3.3133,3.3138,3.3138,3.3138,3.3138,3.3138,0,3.3045,3.3051,3.3058,3.3068,3.3073,3.3076,3.3084,3.3088,3.3095,3.3101,3.3107,3.3115,3.3122,3.3128,3.3135,3.3138,3.3139,3.3139,3.3139,3.314,3.3138,3.3136,3.3138,3.3138,3.3138,3.3138,3.3138,3.3138,3.3048,3.3056,3.306,3.3071,3.3076,3.3084,3.3088,3.3093,3.3098,3.3108,3.3113,3.3118,3.3124,3.3131,3.3137,3.3139,3.3141,3.3141,3.3142,3.314,3.314,3.314,3.3139,3.3141,3.3141,3.3144,3.3144,3.3144]}]]